Location: Caltech
(34.1382°N, 118.1253°W)
Time: 19:48:01
(UTC-07:00)

Iridium 94 - Visible Passes

Search period start: 25 April 2015 00:00
Search period end: 05 May 2015 00:00
Orbit: 775 x 780 km, 86.4° (Epoch: 25 April)

Date Brightness Start Highest point End Pass type
(mag) Time Alt. Az. Time Alt. Az. Time Alt. Az.
25 Apr 8.1 01:35:51 17° N 01:35:51 17° N 01:36:57 10° N visible
26 Apr 8.3 01:02:22 13° NNE 01:02:22 13° NNE 01:03:04 10° NNE visible
26 Apr 8.1 02:42:50 11° NNW 02:42:50 11° NNW 02:43:02 10° NNW visible
27 Apr 8.0 02:09:20 15° NNW 02:09:20 15° NNW 02:10:19 10° NNW visible
28 Apr 8.0 01:35:50 18° N 01:35:50 18° N 01:37:04 10° N visible
29 Apr 8.1 01:02:20 16° NNE 01:02:20 16° NNE 01:03:26 10° NNE visible
30 Apr 8.3 00:28:49 12° NNE 00:28:49 12° NNE 00:29:21 10° NNE visible
30 Apr 8.1 02:09:17 13° NNW 02:09:17 13° NNW 02:10:00 10° NNW visible
01 May 7.9 01:35:46 18° NNW 01:35:46 18° NNW 01:37:03 10° N visible
02 May 7.9 01:02:14 19° N 01:02:14 19° N 01:03:38 10° N visible
03 May 8.0 00:28:42 16° NNE 00:28:42 16° NNE 00:29:50 10° NNE visible
03 May 8.2 02:09:10 11° NW 02:09:10 11° NW 02:09:25 10° NW visible
03 May 8.2 23:55:10 11° NE 23:55:10 11° NE 23:55:30 10° NE visible
04 May 7.9 01:35:38 16° NNW 01:35:38 16° NNW 01:36:51 10° NNW visible
